Don Miguel Hidalgo Y Costilla International Airport
MMGL : now visible

Airfield :











YOU CAN JOIN US ON...

 
LOGIN :

Register | Disclaimer

   EN    FR    IT 

 









Legend :    VFR   Marginal VFR   IFR   Intensive IFR   Very Intensive IFR
Visi :
Ceiling :
>= 8 km
>= 3000ft
5 to 8 km
1000 to 3000 ft
1500m to 5 km
500 to 1000 ft
800 to 1500m
200 to 500 ft
< 800m
< 200 ft
Symbols :   Thunderstorms  Fog  Heavy snow  Heavy precipitations  Wind > 20 kt






- Airport Elevation : 5016 ft
- IATA code : GDL


MMGL - Don Miguel Hidalgo Y Costilla International

CURRENT METAR :
  • 031347Z 10005KT 8SM SCT025TCU BKN080 19/15 A3026 RMK 8/270 PCPN SW

EXPIRED METARs :
  • 031245Z 00000KT 7SM SCT010 BKN020CB BKN070 19/17 A3023 RMK 8/960 PCPN NE/W
  • 031145Z 21003KT 8SM SCT020TCU BKN090 19/17 A3022 RMK SLP112 54000 966 8/260 LTGIC NE

TAF TAF MMGL
Valid from the 03 at 12:00 until the 04 at 18:00 UTC


031057Z 0312/0418 00000KT P6SM SCT025 BKN090 TX28/0322Z TN17/0312Z
TEMPO 0312/0315 5SM -RA BKN020CB
FM031800 33010KT P6SM SCT020 BKN080 BKN250
FM040600 32005KT P6SM SCT025 BKN090
PROB40 0406/0409 5SM -RA BKN020CB
FM041700 23010KT P6SM SCT030 BKN080 BKN250
MMFR FIR / North America



MET'MAP, your aeronautical weather chart ! - Copyright ORBIFLY December 2007 - Disclaimer

ORBIFLY MET'MAP TEAM :

Programming & Development : Alexandra Zaïnal
Concept & original design : Baudouin d'Aumeries
Assistance for programming : Marc-Olivier Méhu
Technical & hardware support : Manuel Goepfert

Contact : metmap@orbifly.com




SOURCES & CREDITS :

   NOAA       Earth
Advisory